Waarnemingen

Advertentie
Mijn weer
Santander, Spanje (8023): temperatuur & dauwpunt: 15.01.2020 04:00:00 - 21.01.2020 04:00:00 (CET)Santander, Spanje (8023): windsnelheid & windstoten: 15.01.2020 04:00:00 - 21.01.2020 04:00:00 (CET)Santander, Spanje (8023): windrichting: 15.01.2020 04:00:00 - 21.01.2020 04:00:00 (CET)Santander, Spanje (8023): luchtdruk: 15.01.2020 04:00:00 - 21.01.2020 04:00:00 (CET)Santander, Spanje (8023): zicht: 15.01.2020 04:00:00 - 21.01.2020 04:00:00 (CET)Santander, Spanje (8023): neerslag: 15.01.2020 04:00:00 - 21.01.2020 04:00:00 (CET)
Datum & Tijd tt [°C] td [°C] ff [km/u] ff [kn] fx [km/u] fx [kn] dd ppp [hPa] vv [km] rr [mm]
21.01.2020 04:00:00 7,6 2,3 9 5 - - ZO 1033,9 20 -
21.01.2020 03:00:00 8,4 1,3 26 14 - - O 1034,3 11 0,0
21.01.2020 02:00:00 8,6 2,4 28 15 - - ONO 1034,8 11 0,0
21.01.2020 01:00:00 8,9 2,5 28 15 - - O 1035,0 20 -
21.01.2020 00:00:00 8,8 1,7 29 16 - - ONO 1035,4 13 0,0
20.01.2020 23:00:00 8,7 2,9 29 16 - - ONO 1035,3 13 0,0
20.01.2020 22:00:00 8,5 2,3 26 14 - - ONO 1035,7 20 -
20.01.2020 21:00:00 8,2 2,0 28 15 - - ONO 1035,8 13 0,0
20.01.2020 20:00:00 7,9 2,1 26 14 - - ONO 1035,9 12 0,0
20.01.2020 19:00:00 7,6 1,4 21 11 - - ONO 1035,8 20 -
20.01.2020 18:00:00 7,2 0,2 21 11 - - ONO 1035,5 15 0,0
20.01.2020 17:00:00 7,4 0,4 24 13 - - ONO 1035,3 12 0,0
20.01.2020 16:00:00 7,5 -0,5 22 12 - - ONO 1035,5 20 -
20.01.2020 15:00:00 7,6 -0,6 24 13 - - ONO 1035,5 17 0,0
20.01.2020 14:00:00 8,5 1,2 22 12 - - O 1035,9 11 0,0
20.01.2020 13:00:00 7,6 1,4 24 13 - - ONO 1036,6 25 -
20.01.2020 12:00:00 7,7 -1,3 29 16 - - ONO 1037,0 12 0,0
20.01.2020 11:00:00 7,6 0,8 31 17 - - ONO 1037,0 10 0,0
20.01.2020 10:00:00 7,3 -0,4 39 21 - - ONO 1036,9 25 -
20.01.2020 09:00:00 7,3 1,1 37 20 - - ONO 1036,8 3,9 0,0
20.01.2020 08:00:00 7,3 0,5 42 23 - - ONO 1036,1 4,3 0,0
20.01.2020 07:00:00 7,3 2,2 41 22 - - ONO 1036,0 10 -
20.01.2020 06:00:00 7,8 1,0 46 25 - - ONO 1036,1 4,0 0,0
20.01.2020 05:00:00 8,2 2,4 44 24 - - ONO 1036,4 3,8 0,0
20.01.2020 04:00:00 8,3 1,2 44 24 - - ONO 1037,0 10 -
20.01.2020 03:00:00 8,3 0,0 42 23 - - ONO 1037,4 4,5 0,0
20.01.2020 02:00:00 8,5 1,9 44 24 - - ONO 1037,8 4,8 0,0
20.01.2020 01:00:00 8,7 0,9 48 26 - - ONO 1038,3 10 -
20.01.2020 00:00:00 8,7 0,6 50 27 - - ONO 1038,5 - 0,0
19.01.2020 23:00:00 8,8 2,8 50 27 - - ONO 1038,3 - 0,0
19.01.2020 22:00:00 9,0 2,1 52 28 - - ONO 1038,2 10 -
19.01.2020 21:00:00 9,1 3,1 54 29 - - NO 1038,0 - 0,0
19.01.2020 20:00:00 9,3 3,5 48 26 - - NO 1037,4 - 0,0
19.01.2020 19:00:00 9,4 4,2 44 24 - - NO 1037,0 15 -
19.01.2020 18:00:00 9,2 4,0 39 21 - - NO 1037,1 6 0,0
19.01.2020 17:00:00 9,4 3,6 39 21 - - NO 1036,7 - 0,0
19.01.2020 16:00:00 9,5 3,5 41 22 - - NO 1036,4 15 -
19.01.2020 15:00:00 10,1 3,1 35 19 - - ONO 1036,3 9 0,0
19.01.2020 14:00:00 10,2 2,5 35 19 - - NO 1036,4 6 0,0
19.01.2020 13:00:00 10,2 3,0 42 23 - - NO 1036,2 15 -
19.01.2020 12:00:00 9,8 5,2 44 24 - - NO 1036,1 4,2 0,0
19.01.2020 11:00:00 10,1 5,1 42 23 - - NO 1035,0 4,6 0,0
19.01.2020 10:00:00 10,0 4,8 42 23 - - NO 1033,7 10 -
19.01.2020 09:00:00 9,9 5,7 41 22 - - NO 1032,3 6 0,0
19.01.2020 08:00:00 9,8 5,8 41 22 - - NO 1030,7 6 0,0
19.01.2020 07:00:00 10,3 6,4 44 24 - - NNO 1029,4 10 -
19.01.2020 06:00:00 10,3 7,7 48 26 - - NNO 1028,1 7 0,0
19.01.2020 05:00:00 10,3 7,2 48 26 - - NO 1027,0 8 0,0
19.01.2020 04:00:00 9,6 7,0 48 26 - - ONO 1026,3 9 -
19.01.2020 03:00:00 9,8 8,1 46 25 - - ONO 1024,9 9 0,2
19.01.2020 02:00:00 10,6 9,2 37 20 - - NO 1023,4 - 0,4
19.01.2020 01:00:00 10,8 8,9 29 16 - - WNW 1023,1 8 -
19.01.2020 00:00:00 10,8 8,4 28 15 - - WNW 1022,3 13 0,0
18.01.2020 23:00:00 10,8 8,4 22 12 - - WNW 1021,6 10 1,0
18.01.2020 22:00:00 11,2 7,9 31 17 - - WNW 1021,2 10 -
18.01.2020 21:00:00 11,2 8,2 29 16 - - WNW 1020,7 14 0,0
18.01.2020 20:00:00 10,9 8,1 21 11 - - W 1020,0 13 0,2
18.01.2020 19:00:00 10,3 6,8 15 8 - - WZW 1019,3 20 -
18.01.2020 18:00:00 9,9 7,3 16 9 - - ZW 1019,4 18 1,0
18.01.2020 17:00:00 10,3 8,4 44 24 102 55 WNW 1019,1 4,4 0,6
18.01.2020 16:00:00 15,8 6,2 28 15 - - ZZW 1014,3 25 -
18.01.2020 15:00:00 15,9 6,0 39 21 - - ZZW 1014,5 20 0,0
18.01.2020 14:00:00 15,6 5,8 39 21 - - ZZW 1016,1 20 0,0
18.01.2020 13:00:00 15,2 4,5 39 21 - - ZZW 1017,4 30 -
18.01.2020 12:00:00 14,2 3,9 34 18 - - ZZW 1018,8 20 0,0
18.01.2020 11:00:00 13,5 3,3 31 17 - - ZZW 1020,8 20 0,0
18.01.2020 10:00:00 12,5 2,6 34 18 - - Z 1021,7 25 -
18.01.2020 09:00:00 10,9 3,0 16 9 - - Z 1022,9 20 0,0
18.01.2020 08:00:00 8,8 4,4 16 9 - - ZO 1024,5 14 0,0
18.01.2020 07:00:00 8,9 4,7 16 9 - - OZO 1025,5 10 -
18.01.2020 06:00:00 9,6 5,2 18 10 - - O 1026,4 14 0,0
18.01.2020 05:00:00 9,1 5,1 11 6 - - O 1027,6 12 0,0
18.01.2020 04:00:00 9,1 4,9 15 8 - - ZO 1028,5 10 -
18.01.2020 03:00:00 9,6 5,2 16 9 - - OZO 1029,1 14 0,0
18.01.2020 02:00:00 9,0 6,4 11 6 - - ZO 1030,2 11 0,0
18.01.2020 01:00:00 9,0 6,8 13 7 - - ZO 1030,8 10 -
18.01.2020 00:00:00 8,9 6,5 9 5 - - ZZO 1031,5 10 0,0
17.01.2020 23:00:00 9,4 6,5 9 5 - - ZZO 1032,1 12 0,0
17.01.2020 22:00:00 9,9 6,4 11 6 - - Z 1032,5 10 -
17.01.2020 21:00:00 10,2 6,0 9 5 - - Z 1032,8 13 0,0
17.01.2020 20:00:00 10,9 6,4 15 8 - - NW 1032,9 10 0,0
17.01.2020 19:00:00 10,7 5,7 18 10 - - WNW 1032,7 10 -
17.01.2020 18:00:00 10,8 6,2 26 14 - - WNW 1032,1 11 0,0
17.01.2020 17:00:00 11,4 6,1 29 16 - - NW 1031,2 11 0,0
17.01.2020 16:00:00 12,0 4,7 37 20 - - NW 1030,3 10 -
17.01.2020 15:00:00 12,3 4,5 34 18 - - WNW 1030,0 14 0,0
17.01.2020 14:00:00 12,6 5,3 29 16 - - WNW 1030,0 15 0,0
17.01.2020 13:00:00 12,4 5,5 31 17 - - WNW 1029,9 12 -
17.01.2020 12:00:00 11,5 6,8 28 15 - - WNW 1029,8 12 0,0
17.01.2020 11:00:00 11,1 6,0 39 21 - - WNW 1029,0 13 0,0
17.01.2020 10:00:00 10,8 6,7 44 24 - - NW 1027,8 10 -
17.01.2020 09:00:00 10,9 7,4 28 15 - - W 1026,8 15 0,2
17.01.2020 08:00:00 10,3 7,5 16 9 - - W 1025,9 9 1,0
17.01.2020 07:00:00 10,4 8,2 34 18 - - W 1024,9 7 -
17.01.2020 06:00:00 10,2 8,5 24 13 - - W 1024,0 3,0 3,0
17.01.2020 05:00:00 12,1 9,1 11 6 - - WZW 1022,8 14 0,0
17.01.2020 04:00:00 11,6 10,0 9 5 - - W 1022,8 10 -
17.01.2020 03:00:00 11,7 9,9 13 7 - - ZZW 1022,1 11 0,0
17.01.2020 02:00:00 12,2 10,3 15 8 - - NW 1021,6 8 0,0
17.01.2020 01:00:00 12,5 11,1 15 8 - - NNW 1020,0 12 -
17.01.2020 00:00:00 12,0 10,7 4 2 - - NO 1018,9 11 0,0
16.01.2020 23:00:00 12,3 10,9 11 6 - - NO 1019,5 8 0,0
16.01.2020 22:00:00 13,0 10,9 9 5 - - NNW 1020,4 15 -
16.01.2020 21:00:00 16,9 3,6 22 12 - - ZW 1018,4 20 0,0
16.01.2020 20:00:00 17,2 2,7 26 14 - - ZZW 1017,1 20 0,0
16.01.2020 19:00:00 17,6 3,5 35 19 - - ZZW 1016,8 30 -
16.01.2020 18:00:00 18,0 3,8 26 14 - - Z 1016,7 20 0,0
16.01.2020 17:00:00 18,5 3,9 29 16 - - ZZW 1016,3 20 0,0
16.01.2020 16:00:00 18,5 3,5 26 14 - - ZZW 1016,4 25 -
16.01.2020 15:00:00 18,1 5,0 29 16 - - ZZW 1015,9 20 0,0
16.01.2020 14:00:00 17,5 6,7 28 15 - - ZZW 1017,2 20 0,0
16.01.2020 13:00:00 18,0 7,1 39 21 - - ZZW 1018,2 30 -
16.01.2020 12:00:00 17,4 7,2 24 13 - - ZZW 1019,2 20 0,0
16.01.2020 11:00:00 17,0 7,3 34 18 - - ZZW 1019,0 20 0,0
16.01.2020 10:00:00 16,9 7,5 29 16 - - Z 1018,5 40 -
16.01.2020 09:00:00 16,4 7,9 29 16 - - Z 1018,4 20 0,0
16.01.2020 08:00:00 16,4 7,6 35 19 - - ZZW 1018,3 20 0,0
16.01.2020 07:00:00 16,2 7,9 29 16 - - ZZW 1017,8 20 -
16.01.2020 06:00:00 16,5 7,7 22 12 - - Z 1018,0 20 0,0
16.01.2020 05:00:00 16,9 8,1 28 15 - - Z 1018,1 20 0,0
16.01.2020 04:00:00 16,8 8,0 28 15 - - ZZW 1018,7 20 -
16.01.2020 03:00:00 16,3 8,3 31 17 - - ZZW 1018,4 20 0,0
16.01.2020 02:00:00 15,9 8,4 31 17 - - Z 1019,0 20 0,0
16.01.2020 01:00:00 15,0 7,8 28 15 - - ZZW 1019,9 20 -
16.01.2020 00:00:00 10,6 9,4 9 5 - - OZO 1021,1 8 0,0
15.01.2020 23:00:00 11,3 10,2 15 8 - - OZO 1021,4 9 0,0
15.01.2020 22:00:00 11,4 10,1 13 7 - - OZO 1021,8 12 -
15.01.2020 21:00:00 11,1 9,8 16 9 - - OZO 1022,2 9 0,0
15.01.2020 20:00:00 11,0 9,7 11 6 - - OZO 1022,8 3,9 0,0
15.01.2020 19:00:00 11,4 9,5 8 4 - - O 1022,9 15 -
15.01.2020 18:00:00 12,2 9,8 4 2 - - O 1022,4 6 0,0
15.01.2020 17:00:00 12,6 10,1 5 3 - - NW 1021,6 8 0,0
15.01.2020 16:00:00 12,9 10,1 11 6 - - NW 1020,9 15 -
15.01.2020 15:00:00 14,0 10,8 15 8 - - WNW 1020,3 9 0,0
15.01.2020 14:00:00 13,5 10,8 13 7 - - WNW 1020,0 8 0,0
15.01.2020 13:00:00 13,6 9,6 11 6 - - NW 1019,8 12 -
15.01.2020 12:00:00 13,4 9,8 9 5 - - ZZW 1018,9 20 0,0
15.01.2020 11:00:00 13,2 9,8 24 13 - - W 1019,0 8 0,0
15.01.2020 10:00:00 15,6 6,0 29 16 - - ZZW 1015,4 15 -
15.01.2020 09:00:00 15,2 5,7 39 21 - - ZZW 1013,3 20 0,0
15.01.2020 08:00:00 15,6 5,8 42 23 - - ZZW 1011,9 20 0,0
15.01.2020 07:00:00 15,5 5,7 41 22 - - ZZW 1011,5 50 -
15.01.2020 06:00:00 15,2 5,7 37 20 - - ZZW 1011,1 20 0,0
15.01.2020 05:00:00 15,0 6,0 39 21 - - ZZW 1010,6 20 0,0
15.01.2020 04:00:00 14,9 5,9 41 22 - - ZZW 1011,2 50 -

tt = temperatuur
td = dauwpunt
ff = windsnelheid
fx = windstoten
dd = windrichting
ppp = luchtdruk
vv = zicht
rr = neerslag

Weerstations in de omgeving